Probability
0 1 4 6 5 5 5 5 5 4 3 2 1 0 0 1 4 6 4 1 0 0 0 1 2 3 4 4 3 3 3 3 2 2 3 3 2 1 0 0 0 0 0
0 1 4 6 7 6 5 5 5 4 2 1 1 1 1 1 3 5 4 2 0 0 1 2 3 4 4 4 3 3 3 3 2 2 2 3 2 1 0 0 0 0 0
0 1 4 6 7 6 6 5 5 4 3 3 2 2 2 2 2 4 6 4 1 0 1 3 4 4 4 3 3 3 3 2 1 1 1 1 1 0 0 0 0 0 0
0 2 5 6 6 5 6 6 4 3 4 3 2 2 2 2 2 3 5 5 2 1 1 3 3 3 3 3 3 3 1 1 0 0 0 0 0 0 1 0 0 0 0
0 2 6 6 5 5 5 4 3 3 3 2 1 1 0 1 1 1 2 3 2 1 1 2 2 3 3 3 2 2 1 0 0 0 0 0 0 0 0 0 0 0 0
1 3 5 6 6 5 4 4 4 4 4 2 1 1 1 0 0 0 1 1 1 0 1 2 2 2 2 1 1 1 0 0 0 0 0 0 0 0 0 0 0 0 0
1 3 4 5 6 5 4 4 4 5 5 3 2 2 1 0 0 0 0 0 0 0 1 2 2 1 1 0 0 0 0 0 0 0 0 0 0 0 0 0 0 0 0
1 2 4 4 4 4 4 4 4 4 4 3 3 2 1 0 0 0 0 0 0 0 0 1 1 1 0 0 0 0 0 0 0 0 0 0 0 0 0 0 0 0 0
2 3 3 3 2 2 2 2 3 3 2 2 2 2 1 1 2 1 1 1 0 0 0 0 0 0 0 0 0 0 0 0 0 0 0 0 0 0 0 0 0 0 0
2 2 2 2 2 1 1 1 1 2 2 1 2 2 2 2 3 2 2 2 1 0 0 0 0 0 0 0 0 0 0 0 0 0 0 0 0 0 0 0 0 0 0
1 1 1 1 1 0 0 0 0 1 2 2 2 3 3 3 3 2 2 1 1 0 0 0 0 0 0 0 0 0 0 0 0 0 0 0 0 0 0 1 1 0 0
0 1 2 1 0 0 0 0 0 1 1 1 2 2 3 3 3 2 2 1 1 0 0 0 0 0 0 0 0 0 0 0 0 0 0 0 0 0 0 1 2 1 0
1 3 4 3 1 1 0 0 1 2 2 1 1 1 1 2 4 5 5 4 3 1 1 1 0 0 0 0 0 0 0 0 0 0 0 0 0 0 0 1 2 2 1
1 3 4 4 3 3 2 0 1 3 2 1 0 0 0 2 4 6 7 7 6 3 2 2 1 0 0 0 0 0 0 0 0 0 0 0 0 0 0 0 1 3 3
0 1 3 4 5 6 4 2 2 3 2 0 0 0 0 1 3 5 7 8 7 4 3 3 2 1 1 1 0 0 0 0 0 0 0 0 0 1 1 0 1 3 5
1 1 2 4 7 7 6 3 3 3 1 0 0 0 0 1 2 4 4 5 5 4 3 3 3 3 2 2 1 0 0 0 0 0 0 0 1 2 2 1 1 3 5
2 2 2 4 6 7 6 5 3 2 1 0 0 0 0 1 2 3 3 3 4 3 3 3 3 3 3 2 1 0 0 0 0 0 0 0 1 1 2 2 2 4 5
1 1 3 4 6 6 6 5 2 1 0 0 0 0 0 0 1 3 3 3 3 3 3 3 3 3 3 2 1 2 1 1 1 0 0 0 0 0 1 3 4 5 5
0 1 3 5 5 5 6 5 3 1 0 0 0 0 0 0 1 2 3 3 3 3 4 4 4 4 4 3 3 3 3 2 1 0 0 0 0 0 1 3 5 6 6
1 2 3 4 5 4 4 5 3 2 1 0 0 0 0 0 0 1 3 3 4 4 5 6 5 5 4 4 3 3 3 3 2 0 0 1 0 0 0 1 4 6 7
3 3 3 4 4 3 4 5 4 2 1 0 0 1 1 1 0 1 2 4 4 5 6 6 6 5 4 4 4 3 3 3 2 1 2 2 1 0 0 1 3 5 6
4 4 4 5 5 4 5 5 4 2 1 0 0 1 1 1 0 1 2 3 4 5 6 6 5 4 3 4 5 4 4 4 4 3 4 3 2 1 1 1 2 3 4
4 4 6 8 9 8 7 5 4 3 1 1 1 1 0 0 0 1 2 3 4 5 6 6 4 3 3 4 5 5 5 5 5 5 5 4 2 1 1 1 1 2 2
4 4 7 11 13 11 9 8 6 4 2 2 1 1 1 0 1 1 2 3 5 7 8 5 4 3 3 3 4 5 6 6 5 5 5 3 1 0 0 1 1 2 2
3 4 7 11 13 12 11 10 9 6 5 3 3 4 3 2 2 2 3 4 7 8 8 6 4 3 3 4 5 6 7 7 5 4 4 3 1 1 1 1 1 1 1
3 4 6 10 12 11 11 11 10 9 7 5 4 6 7 5 3 2 3 6 8 8 8 6 4 3 4 5 7 8 8 8 6 4 3 3 2 2 1 1 0 0 0
Wind_Speed
3 5 7 5 6 6 7 8 10 11 11 11 12 12 13 13 15 16 17 18 19 19 19 19 19 19 19 19 19 19 18 17 16 16 16 16 15 14 13 12 11 12 15
3 5 7 5 6 6 7 9 10 11 11 12 12 13 14 15 15 16 17 18 19 19 19 19 19 19 19 18 18 18 17 17 16 16 16 15 14 13 11 9 7 11 14
4 5 6 7 7 8 8 10 11 11 12 12 13 13 14 15 16 16 18 18 18 19 19 19 19 18 17 17 17 16 16 16 15 14 13 11 12 12 11 11 12 14 13
4 6 7 8 8 9 10 11 11 12 12 13 14 14 14 15 16 17 17 18 18 18 18 18 18 17 16 16 15 15 15 14 13 11 8 9 10 12 11 11 12 13 12
5 6 9 8 9 11 11 11 12 13 13 13 14 14 14 15 16 16 17 18 18 17 17 17 17 16 16 15 15 15 14 13 10 8 9 8 9 11 11 11 11 12 12
6 7 10 9 10 11 11 11 12 12 13 13 14 14 14 15 16 16 17 17 16 16 17 17 16 16 15 15 14 14 13 11 10 8 8 8 9 11 10 10 10 11 10
7 7 10 9 9 10 11 11 11 12 12 13 14 14 14 14 15 16 16 15 15 15 15 15 15 14 14 14 13 12 10 7 6 8 7 7 10 11 10 10 10 10 10
7 7 8 9 9 10 10 10 11 11 11 12 12 13 14 14 14 14 14 14 14 14 14 14 13 13 12 12 11 10 8 5 7 8 7 8 10 9 9 9 9 9 9
6 6 6 7 8 9 10 10 10 10 10 11 11 12 13 14 14 13 13 13 13 13 12 12 12 11 11 10 10 9 6 2 4 6 7 7 10 8 9 9 8 8 8
6 6 6 6 6 6 8 9 9 9 10 10 10 10 12 13 13 12 12 12 12 11 11 10 10 10 9 9 9 7 6 5 4 6 5 8 10 8 8 9 8 8 8
5 5 5 6 6 5 6 8 8 8 8 8 9 9 7 8 10 9 12 11 10 10 10 9 9 9 8 10 9 7 6 3 5 4 5 10 9 8 7 8 8 8 8
5 6 5 5 5 4 4 4 4 5 5 5 5 6 5 5 5 7 11 10 9 9 9 9 7 8 7 6 9 9 3 3 3 4 7 10 7 7 7 7 8 8 8
5 5 6 5 5 4 3 3 3 3 4 5 6 5 5 4 5 5 5 7 7 7 6 8 7 3 3 3 2 2 2 1 1 3 7 9 6 5 6 6 7 7 8
5 5 5 5 4 3 3 3 3 3 3 4 5 4 4 3 3 4 3 3 3 3 3 2 2 3 2 3 2 1 2 1 1 2 6 8 6 5 5 6 6 7 7
5 5 5 4 4 4 3 1 3 3 3 4 3 3 3 3 3 3 3 2 2 3 3 3 2 2 2 2 2 2 1 1 1 2 4 8 6 5 5 5 6 6 7
5 5 6 5 5 4 4 2 2 3 3 3 3 3 2 2 2 2 3 2 2 2 1 1 2 2 1 1 1 2 1 1 1 2 2 6 8 6 4 4 5 5 6
6 6 6 6 5 5 4 3 3 3 3 3 3 3 2 2 2 2 2 2 2 2 2 2 2 1 2 2 2 2 1 1 1 1 1 2 4 8 6 5 4 5 5
6 6 6 6 6 5 4 2 2 2 3 2 2 2 3 2 2 2 2 2 2 1 2 2 1 1 1 1 1 1 1 1 2 2 2 2 2 2 6 7 4 4 5
6 6 7 6 6 5 5 3 3 2 2 2 2 2 2 2 2 2 1 2 2 2 1 1 2 0 1 1 1 2 1 1 1 2 2 2 2 2 2 6 7 4 4
7 7 7 7 6 5 4 3 2 2 2 2 2 2 2 2 2 2 2 2 2 2 2 1 1 1 1 1 1 1 1 1 1 1 2 2 2 2 1 1 3 5 5
7 7 7 7 6 5 4 4 3 3 2 2 2 3 2 2 2 2 1 2 2 1 1 2 1 2 2 1 1 1 2 2 1 2 2 1 1 1 1 1 1 1 3
8 8 8 8 7 6 4 3 2 1 1 1 1 2 2 2 2 3 2 2 2 2 2 2 2 1 1 2 2 2 2 3 3 2 2 2 1 1 1 2 1 1 2
9 9 8 8 7 7 6 4 3 3 2 3 3 3 3 3 3 2 2 2 2 2 2 2 2 2 2 2 2 3 2 1 0 2 2 1 1 1 1 1 2 1 2
11 10 9 8 8 7 7 6 5 4 3 2 2 2 3 3 3 3 3 3 3 2 2 3 2 2 3 2 2 2 3 3 2 1 2 2 2 2 2 2 1 2 2
11 10 10 9 9 8 8 7 6 5 4 3 3 3 3 3 3 3 3 3 3 2 2 2 1 3 3 3 2 2 2 2 4 3 2 1 2 2 2 2 2 1 2
11 11 10 10 10 9 9 8 8 6 5 4 4 4 4 3 3 4 4 3 4 3 3 3 3 4 3 2 3 2 2 2 3 3 3 3 2 1 2 1 2 2 2
Wind_Direction
48 53 69 48 47 52 62 67 78 83 85 88 90 91 93 93 97 99 103 109 111 113 115 117 118 117 115 114 116 117 117 118 119 119 120 120 120 118 119 127 137 118 117
58 69 77 54 50 57 71 79 83 86 87 88 90 91 93 95 97 99 103 109 111 113 114 116 117 117 115 115 115 117 118 119 119 122 126 125 122 120 123 125 108 112 124
69 78 83 59 55 68 79 86 85 86 87 89 91 93 95 97 98 100 105 108 111 113 114 115 115 115 114 115 117 118 118 120 124 130 142 132 123 123 124 121 116 122 126
74 75 70 64 65 75 83 88 87 86 85 89 92 95 96 99 99 100 104 104 109 111 112 113 115 116 115 116 118 118 117 120 130 150 142 122 125 124 129 127 128 128 129
81 80 79 70 72 79 83 84 84 85 85 89 94 96 98 100 102 102 102 103 106 109 113 113 113 115 115 115 116 117 118 123 135 150 115 116 114 124 133 132 133 133 133
92 88 86 78 78 81 81 82 82 83 88 91 93 95 98 101 103 104 104 105 106 107 107 110 112 112 113 113 114 118 123 137 162 123 118 123 118 128 133 134 134 137 138
93 92 93 88 84 82 82 82 82 83 86 91 93 94 98 101 104 107 107 108 108 108 109 109 109 111 113 115 117 120 128 156 140 111 116 110 107 127 134 135 138 139 140
100 98 99 102 92 86 86 85 85 85 86 89 93 95 100 103 105 107 108 109 111 112 112 111 112 113 113 114 117 124 139 184 130 116 113 105 110 133 138 140 142 146 147
103 104 108 114 110 102 93 88 87 88 89 91 93 98 102 104 107 108 109 109 110 111 112 114 115 116 116 117 120 126 139 211 131 120 119 113 129 144 148 149 150 151 150
109 106 106 105 105 116 112 100 95 95 97 99 99 105 115 118 118 121 118 111 113 113 113 115 118 120 120 121 124 130 155 207 134 124 119 116 138 151 156 157 158 157 158
112 113 115 117 118 118 113 114 117 116 113 123 117 121 139 126 122 127 107 113 116 118 119 120 124 132 140 141 140 154 188 177 119 112 108 117 144 156 161 164 164 165 167
129 128 125 120 117 120 112 118 116 115 115 110 102 116 111 105 107 112 120 125 125 128 132 131 141 164 187 151 152 181 181 143 134 130 110 126 148 161 168 170 172 175 175
142 138 132 127 128 126 122 121 111 110 114 117 114 117 110 120 123 124 130 140 143 148 139 144 169 167 152 122 150 159 131 141 125 116 117 134 149 165 172 175 180 181 185
150 147 136 130 131 122 109 116 129 123 121 113 117 123 120 116 116 111 118 119 134 126 125 136 135 127 140 149 161 158 162 172 110 99 120 140 156 171 182 187 186 185 190
163 161 149 147 140 138 130 130 113 111 118 116 118 119 122 128 120 112 108 115 122 123 145 146 130 132 160 161 164 146 142 108 142 140 131 146 158 170 180 188 192 195 201
170 163 158 163 154 152 149 145 126 128 122 116 123 124 137 123 117 122 134 125 124 128 112 133 128 155 164 127 143 138 172 166 153 179 165 152 161 167 177 188 198 203 211
172 164 166 170 163 163 163 164 154 149 140 135 127 134 155 149 139 153 140 147 121 122 143 154 140 165 168 163 155 160 169 179 159 179 204 186 169 169 175 187 203 209 217
172 168 175 173 162 164 168 171 158 144 131 134 137 144 155 151 161 179 148 122 124 158 164 145 170 157 137 174 152 158 149 161 181 197 200 199 211 182 170 178 195 215 229
177 176 176 175 170 170 165 168 166 146 153 156 147 151 146 163 170 188 152 120 180 174 167 192 123 184 159 182 185 167 191 189 196 210 211 213 202 210 186 160 180 199 221
178 179 179 178 177 175 174 169 167 165 174 169 158 143 158 173 167 199 172 155 195 168 170 153 140 162 222 216 234 122 227 222 213 208 228 212 200 207 218 205 189 185 192
180 180 183 183 175 182 184 189 181 179 182 170 172 164 180 187 169 205 203 158 204 169 184 189 189 170 189 179 220 201 198 197 201 207 225 244 202 202 218 216 242 253 182
185 184 184 185 182 188 181 192 192 188 190 175 181 165 192 186 195 193 192 207 177 174 183 192 199 243 203 193 253 257 226 176 180 182 201 211 221 209 202 193 207 252 283
189 189 188 186 183 190 187 189 181 179 207 191 186 178 186 190 192 207 194 214 201 219 180 198 204 220 235 221 243 280 293 351 107 159 189 211 229 249 239 202 203 221 251
191 187 187 185 186 187 190 198 202 203 205 191 197 166 175 185 195 206 214 208 225 224 184 219 181 223 236 246 212 245 288 333 295 260 197 180 195 229 252 253 215 203 220
189 185 183 184 188 189 194 195 204 210 206 192 183 169 199 185 203 212 218 217 218 226 214 245 211 240 236 255 258 241 226 224 249 268 270 249 226 218 218 227 231 224 224
188 186 183 183 188 189 195 199 204 207 208 203 193 189 203 198 199 201 210 214 220 221 211 217 218 214 243 266 272 265 249 244 245 252 267 257 249 224 217 225 229 222 220